Regional Weather Roundup
Issued by NWS

Home | Current Version | Previous Version | Graphics & Text | Print | Product List | Glossary On
Versions: 1 2 3 4 5 6 7 8 9 10 11 12 13 14 15 16 17 18 19 20 21 22 23 24 25 26 27 28 29 30 31 32 33 34 35 36 37 38 39 40 41 42 43 44 45 46 47 48 49 50
000
ASUS43 KLMK 280402
RWRKY
KENTUCKY REGIONAL WEATHER ROUNDUP
NATIONAL WEATHER SERVICE LOUISVILLE KY
1200 AM EDT SAT MAR 28 2015

NOTE "FAIR" INDICATES FEW OR NO CLOUDS BELOW 12,000 FEET
WITH NO SIGNIFICANT WEATHER AND/OR OBSTRUCTIONS TO VISIBILITY.

KYZ001>023-026-027-061>063-070>075-280500-
WESTERN AND SOUTH CENTRAL KENTUCKY

CITY           SKY/WX    TMP DP  RH WIND       PRES   REMARKS
PADUCAH        CLEAR     32  20  61 CALM      30.18S
HENDERSON      CLEAR     32  19  59 NE13      30.18S WCI  22
OWENSBORO      CLEAR     32  19  58 N8        30.18R WCI  25
HOPKINSVILLE   CLOUDY    35  18  49 N6        30.16R WCI  30
BOWLING GREEN  CLOUDY    36  17  46 NW8       30.15R WCI  30
GLASGOW        NOT AVBL
$$

KYZ024-025-028>034-038-045-046-053-280500-
NORTH CENTRAL KENTUCKY

CITY           SKY/WX    TMP DP  RH WIND       PRES   REMARKS
LOUISVILLE/SDF PTCLDY    31  15  52 N13       30.15R WCI  21
LOUISVILLE/LOU CLEAR     31  14  49 NW7       30.15R WCI  24
FORT KNOX      CLOUDY    32  21  64 NW9       30.12R WCI  24
$$

KYZ035>037-039>044-047>052-055>060-089>105-280500-
NORTHEAST KENTUCKY

CITY           SKY/WX    TMP DP  RH WIND       PRES   REMARKS
LEXINGTON      CLOUDY    29  15  56 N8        30.10R WCI  21
COVINGTON      CLOUDY    28  10  46 NW10      30.11R WCI  19
FRANKFORT      MOCLDY    28  16  60 NW5       30.10S WCI  23
$$

KYZ054-064>069-076>088-106>120-280500-
SOUTHEAST KENTUCKY

CITY           SKY/WX    TMP DP  RH WIND       PRES   REMARKS
JACKSON        CLOUDY    29  16  58 NW7       30.04R WCI  22
LONDON         CLOUDY    32  21  64 N8        30.06R WCI  25
SOMERSET       NOT AVBL
MIDDLESBORO    FLURRIES  34  24  67 N5        30.04R WCI  30
MONTICELLO     CLOUDY    33  24  70 N9        30.12R WCI  25
$$




USA.gov is the U.S. government's official web portal to all federal, state and local government web resources and services.